Regional Weather Roundup
Issued by NWS Portland, ME

Current Version | Previous Version | Text Only | Print | Product List | Glossary Off
Versions: 1 2 3 4 5 6 7 8 9 10 11 12 13 14 15 16 17 18 19 20 21 22 23 24 25 26 27 28 29 30 31 32 33 34 35 36 37 38 39 40 41 42 43 44 45 46 47 48 49 50
000 ASUS41 KGYX 210110 RWRGYX WEATHER ROUNDUP FOR MAINE AND NEW HAMPSHIRE NATIONAL WEATHER SERVICE GRAY ME 900 PM EDT WED SEP 20 2017 MEZ002-005-006-010-012-015-018-020-021-024-026-027-029-210200- MAINE CITY SKY/WX TMP DP RH WIND PRES REMARKS PORTLAND MOCLDY 71 65 81 N9 29.94S SANFORD MOCLDY 70 66 87 N12 29.94S BAR HARBOR CLOUDY 69 67 93 N8 29.96S WISCASSET CLOUDY 72 65 78 VRB3 29.95S ROCKLAND CLOUDY 68 65 90 N8 29.93S FRYEBURG MOCLDY 66 65 96 NW5 30.00R LEWISTONAUBURN CLOUDY 69 65 86 N9 29.98R AUGUSTA PTCLDY 70 64 81 N12 29.98S WATERVILLE CLOUDY 69 64 84 N9 29.97R BANGOR MOCLDY 71 64 78 N12 29.99R GREENVILLE N/A 65 61 87 N7 30.04R MILLINOCKET CLOUDY 65 62 90 E6 30.03R HOULTON CLOUDY 61 59 93 N6 30.03R PRESQUE ISLE CLEAR 61 51 70 N8 30.08R FRENCHVILLE CLEAR 56 42 59 N7 30.10R CARIBOU CLEAR 60 49 66 N9 30.07R $$ NHZ002-005-008-009-011-012-014-210200- NEW HAMPSHIRE CITY SKY/WX TMP DP RH WIND PRES REMARKS PORTSMOUTH MOCLDY 72 65 79 N10 29.90S ROCHESTER MOCLDY 70 63 78 N8 29.94R NASHUA CLOUDY 72 67 84 N9 29.93S MANCHESTER CLOUDY 71 67 87 N10 29.92S CONCORD MOCLDY 71 64 78 N7 29.96R LACONIA MOCLDY 69 65 86 N3 29.98S PLYMOUTH CLOUDY 65 63 93 CALM 29.99R BERLIN CLOUDY 62 59 90 CALM 30.04R WHITEFIELD MOCLDY 68 61 78 NE7 30.02R JAFFREY CLOUDY 67 67 100 CALM 29.98R KEENE CLOUDY 68 63 84 CALM 29.97R LEBANON MOCLDY 65 64 97 CALM 29.98R MT WASHINGTON FOG 52 52 100 E33G39 N/A VSB 0 $$ VTZ005-007-008-210200- VERMONT CITY SKY/WX TMP DP RH WIND PRES REMARKS ST JOHNSBURY N/A 67 66 97 MISG 30.00R MONTPELIER CLOUDY 66 63 90 CALM 30.06R BURLINGTON CLOUDY 71 66 84 N6 30.01S $$ MAZ007-012-024-CTZ003-RIZ002-NYZ038-NYZ072-210200- SOUTHERN NEW ENGLAND AND NY CITY SKY/WX TMP DP RH WIND PRES REMARKS BOSTON CLOUDY 71 67 87 N13 29.87F WORCESTER CLOUDY 67 63 87 N12G21 29.94R NANTUCKET HVY RAIN 66 66 100 N33G45 29.66S FOG PROVIDENCE CLOUDY 70 68 93 N14 29.85F HARTFORD CLOUDY 72 65 78 N14 29.93R ALBANY CLOUDY 71 63 75 N5 29.98R NEW YORK CITY CLOUDY 77 64 64 N10 29.91R $$ ANZ081-ANZ082-ANZ150-NHZ014-MEZ023>029-210200- COASTAL MARINE OBSERVATIONS STATION/POSITION TIME TEMP WIND PRES WAVE AIR SEA DIR/SP/G HT/PER (UTC) (F) (DEG/KT/KT) (MB) (FT/S) MOUNT DESERT ROC 0100 61 10/ 20/ 21 1013.0R MATINICUS ROCK 0000 60 40/ 21/ 22 1012.4F ISLE OF SHOALS 0000 65 50/ 16/ 18 1012.0R JEFFREYS LEDGE 0006 63 N/A 7/11 GEORGES BANK BUO 2350 75 65 1000.0 19/13 $$ .............KEY.............. WCI - WIND CHILL TC - TEMPERATURE IN CELSIUS VSB - VISIBILITY IN MILES HX - HEAT INDEX FAIR- INDICATES FEW OR NO CLOUDS BELOW 12,000 FT, WITH NO SIGNIFICANT WEATHER AND/OR OBSTRUCTIONS TO VISIBILITY.

USA.gov is the U.S. government's official web portal to all federal, state and local government web resources and services.